Time,TemperatureF,DewpointF,PressureIn,WindDirection,WindDirectionDegrees,WindSpeedMPH,WindSpeedGustMPH,Humidity,HourlyPrecipIn,Conditions,Clouds,dailyrainin,SoftwareType,DateUTC
2013-03-22 00:00:00,67.6,61.3,28.94,East,90,1.1,1.1,80,0.00,,,0.00,WUHU216HW,2013-03-22 06:00:00,
2013-03-22 00:05:00,67.2,61.3,28.94,SSE,158,2.6,2.6,81,0.00,,,0.00,WUHU216HW,2013-03-22 06:05:00,
2013-03-22 00:10:00,67.6,61.6,28.94,SE,135,1.1,2.6,81,0.00,,,0.00,WUHU216HW,2013-03-22 06:10:00,
2013-03-22 00:15:00,67.2,61.3,28.94,South,180,0.8,1.1,81,0.00,,,0.00,WUHU216HW,2013-03-22 06:15:00,
2013-03-22 00:20:00,67.2,61.3,28.94,East,90,0.0,1.1,81,0.00,,,0.00,WUHU216HW,2013-03-22 06:20:00,
2013-03-22 00:25:00,67.6,61.6,28.94,East,90,0.0,0.8,81,0.00,,,0.00,WUHU216HW,2013-03-22 06:25:00,
2013-03-22 00:30:00,67.2,60.9,28.94,SSW,203,0.8,0.8,80,0.00,,,0.00,WUHU216HW,2013-03-22 06:30:00,
2013-03-22 00:35:00,67.2,61.3,28.95,ESE,113,0.0,0.8,81,0.00,,,0.00,WUHU216HW,2013-03-22 06:35:00,
2013-03-22 00:40:00,67.1,61.1,28.94,East,90,0.0,0.8,81,0.00,,,0.00,WUHU216HW,2013-03-22 06:40:00,
2013-03-22 00:45:00,67.1,61.4,28.94,ESE,113,0.0,0.0,82,0.00,,,0.00,WUHU216HW,2013-03-22 06:45:00,
2013-03-22 00:50:00,67.1,61.4,28.94,ESE,113,0.0,0.0,82,0.00,,,0.00,WUHU216HW,2013-03-22 06:50:00,
2013-03-22 00:55:00,67.1,61.7,28.94,SSE,158,0.0,1.7,83,0.00,,,0.00,WUHU216HW,2013-03-22 06:55:00,
2013-03-22 01:00:00,67.1,61.7,28.95,SSE,158,0.0,1.7,83,0.00,,,0.00,WUHU216HW,2013-03-22 07:00:00,
2013-03-22 01:05:00,67.1,61.7,28.95,SE,135,0.0,1.3,83,0.00,,,0.00,WUHU216HW,2013-03-22 07:05:00,
2013-03-22 01:10:00,67.2,61.9,28.95,SSE,158,1.1,3.1,83,0.00,,,0.00,WUHU216HW,2013-03-22 07:10:00,
2013-03-22 01:15:00,67.2,62.2,28.94,ENE,68,0.8,3.1,84,0.00,,,0.00,WUHU216HW,2013-03-22 07:15:00,
2013-03-22 01:20:00,67.2,62.2,28.95,NE,45,1.1,2.2,84,0.00,,,0.00,WUHU216HW,2013-03-22 07:20:00,
2013-03-22 01:25:00,67.2,62.2,28.95,South,180,0.0,3.8,84,0.00,,,0.00,WUHU216HW,2013-03-22 07:25:00,
2013-03-22 01:30:00,67.2,62.6,28.95,South,180,0.8,3.8,85,0.00,,,0.00,WUHU216HW,2013-03-22 07:30:00,
2013-03-22 01:35:00,67.2,62.2,28.94,SSE,158,0.0,1.3,84,0.00,,,0.00,WUHU216HW,2013-03-22 07:35:00,
2013-03-22 01:40:00,67.2,62.2,28.94,SE,135,0.0,1.1,84,0.00,,,0.00,WUHU216HW,2013-03-22 07:40:00,
2013-03-22 01:45:00,67.2,62.2,28.95,South,180,1.3,1.3,84,0.00,,,0.00,WUHU216HW,2013-03-22 07:45:00,
2013-03-22 01:50:00,67.2,62.2,28.94,South,180,0.0,1.3,84,0.00,,,0.00,WUHU216HW,2013-03-22 07:50:00,
2013-03-22 01:55:00,67.2,62.2,28.95,ESE,113,1.1,1.3,84,0.00,,,0.00,WUHU216HW,2013-03-22 07:55:00,
2013-03-22 02:00:00,67.2,62.2,28.94,SSW,203,1.3,1.3,84,0.00,,,0.00,WUHU216HW,2013-03-22 08:00:00,
2013-03-22 02:05:00,67.2,62.6,28.94,East,90,1.1,1.7,85,0.00,,,0.00,WUHU216HW,2013-03-22 08:05:00,
2013-03-22 02:10:00,67.2,62.6,28.94,East,90,1.1,1.7,85,0.00,,,0.00,WUHU216HW,2013-03-22 08:10:00,
2013-03-22 02:15:00,67.2,62.6,28.94,SSE,158,1.1,1.1,85,0.00,,,0.00,WUHU216HW,2013-03-22 08:15:00,
2013-03-22 02:20:00,67.2,62.6,28.94,South,180,1.1,1.1,85,0.00,,,0.00,WUHU216HW,2013-03-22 08:20:00,
2013-03-22 02:25:00,67.2,62.6,28.94,ENE,68,0.8,1.1,85,0.00,,,0.00,WUHU216HW,2013-03-22 08:25:00,
2013-03-22 02:30:00,67.4,62.7,28.94,SE,135,0.8,0.8,85,0.00,,,0.00,WUHU216HW,2013-03-22 08:30:00,
2013-03-22 02:35:00,67.6,62.9,28.94,East,90,0.8,1.1,85,0.00,,,0.00,WUHU216HW,2013-03-22 08:35:00,
2013-03-22 02:40:00,67.6,62.9,28.94,SSE,158,0.8,1.1,85,0.00,,,0.00,WUHU216HW,2013-03-22 08:40:00,
2013-03-22 02:45:00,67.6,62.9,28.94,SSE,158,0.0,1.1,85,0.00,,,0.00,WUHU216HW,2013-03-22 08:45:00,
2013-03-22 02:50:00,67.6,62.9,28.94,SSE,158,0.0,0.8,85,0.00,,,0.00,WUHU216HW,2013-03-22 08:50:00,
2013-03-22 02:55:00,67.6,62.9,28.94,SSE,158,0.8,0.8,85,0.00,,,0.00,WUHU216HW,2013-03-22 08:55:00,
2013-03-22 03:00:00,67.6,62.9,28.94,SSW,203,2.2,2.2,85,0.00,,,0.00,WUHU216HW,2013-03-22 09:00:00,
2013-03-22 03:08:00,67.8,63.4,28.93,South,180,0.6,2.2,86,0.00,,,0.00,WUHU216HW,2013-03-22 09:08:00,
2013-03-22 03:13:00,67.8,63.4,28.93,South,180,0.8,0.8,86,0.00,,,0.00,WUHU216HW,2013-03-22 09:13:00,
2013-03-22 03:18:00,67.8,63.1,28.93,SSW,203,0.8,0.8,85,0.00,,,0.00,WUHU216HW,2013-03-22 09:18:00,
2013-03-22 03:23:00,67.8,63.1,28.93,SE,135,1.3,1.3,85,0.00,,,0.00,WUHU216HW,2013-03-22 09:23:00,
2013-03-22 03:28:00,67.8,63.4,28.93,SSE,158,0.0,1.3,86,0.00,,,0.00,WUHU216HW,2013-03-22 09:28:00,
2013-03-22 03:33:00,67.8,63.4,28.93,SSE,158,0.0,1.7,86,0.00,,,0.00,WUHU216HW,2013-03-22 09:33:00,
2013-03-22 03:38:00,67.8,63.4,28.93,South,180,6.2,6.2,86,0.00,,,0.00,WUHU216HW,2013-03-22 09:38:00,
2013-03-22 03:43:00,67.8,63.4,28.93,SE,135,1.1,6.2,86,0.00,,,0.00,WUHU216HW,2013-03-22 09:43:00,
2013-03-22 03:48:00,67.8,63.4,28.93,South,180,0.8,6.2,86,0.00,,,0.00,WUHU216HW,2013-03-22 09:48:00,
2013-03-22 03:53:00,68.1,63.8,28.93,South,180,0.8,2.2,86,0.00,,,0.00,WUHU216HW,2013-03-22 09:53:00,
2013-03-22 03:58:00,68.1,63.8,28.93,South,180,0.0,0.8,86,0.00,,,0.00,WUHU216HW,2013-03-22 09:58:00,
2013-03-22 04:07:00,68.1,63.8,28.93,SSE,158,0.8,0.8,86,0.00,,,0.00,WUHU216HW,2013-03-22 10:07:00,
2013-03-22 04:12:00,68.1,63.8,28.93,SSW,203,1.1,1.1,86,0.00,,,0.00,WUHU216HW,2013-03-22 10:12:00,
2013-03-22 04:17:00,68.1,63.8,28.93,ESE,113,0.0,2.0,86,0.00,,,0.00,WUHU216HW,2013-03-22 10:17:00,
2013-03-22 04:22:00,68.1,63.8,28.93,SSE,158,0.0,2.0,86,0.00,,,0.00,WUHU216HW,2013-03-22 10:22:00,
2013-03-22 04:27:00,68.1,63.8,28.93,SSW,203,0.8,2.0,86,0.00,,,0.00,WUHU216HW,2013-03-22 10:27:00,
2013-03-22 04:32:00,68.1,63.8,28.93,SW,225,0.6,0.8,86,0.00,,,0.00,WUHU216HW,2013-03-22 10:32:00,
2013-03-22 04:37:00,68.1,63.8,28.93,South,180,1.5,1.5,86,0.00,,,0.00,WUHU216HW,2013-03-22 10:37:00,
2013-03-22 04:42:00,68.1,63.8,28.93,SSE,158,0.6,1.5,86,0.00,,,0.00,WUHU216HW,2013-03-22 10:42:00,
2013-03-22 04:47:00,68.1,63.8,28.93,SE,135,0.8,0.8,86,0.00,,,0.00,WUHU216HW,2013-03-22 10:47:00,
2013-03-22 04:52:00,68.1,63.8,28.94,ENE,68,0.6,0.8,86,0.00,,,0.00,WUHU216HW,2013-03-22 10:52:00,
2013-03-22 04:57:00,68.1,63.8,28.94,NE,45,0.8,0.8,86,0.00,,,0.00,WUHU216HW,2013-03-22 10:57:00,
2013-03-22 05:11:00,68.1,63.8,28.94,ESE,113,0.8,0.8,86,0.00,,,0.00,WUHU216HW,2013-03-22 11:11:00,
2013-03-22 05:17:00,68.1,63.8,28.94,ESE,113,0.0,0.8,86,0.00,,,0.00,WUHU216HW,2013-03-22 11:17:00,
2013-03-22 05:22:00,68.1,63.8,28.95,South,180,0.8,0.8,86,0.00,,,0.00,WUHU216HW,2013-03-22 11:22:00,
2013-03-22 05:27:00,68.1,63.8,28.95,South,180,0.0,0.8,86,0.00,,,0.00,WUHU216HW,2013-03-22 11:27:00,
2013-03-22 05:32:00,68.1,63.8,28.95,South,180,0.8,0.8,86,0.00,,,0.00,WUHU216HW,2013-03-22 11:32:00,
2013-03-22 05:37:00,68.1,63.8,28.95,ESE,113,0.0,0.8,86,0.00,,,0.00,WUHU216HW,2013-03-22 11:37:00,
2013-03-22 05:42:00,68.1,63.8,28.95,ESE,113,0.8,0.8,86,0.00,,,0.00,WUHU216HW,2013-03-22 11:42:00,
2013-03-22 05:47:00,68.1,63.8,28.95,ESE,113,0.6,0.8,86,0.00,,,0.00,WUHU216HW,2013-03-22 11:47:00,
2013-03-22 05:52:00,68.1,64.1,28.96,ESE,113,1.1,1.1,87,0.00,,,0.00,WUHU216HW,2013-03-22 11:52:00,
2013-03-22 05:57:00,67.8,63.9,28.96,NNE,23,1.1,1.1,87,0.00,,,0.00,WUHU216HW,2013-03-22 11:57:00,
2013-03-22 06:13:00,67.8,63.7,28.96,ENE,68,0.8,1.1,87,0.00,,,0.00,WUHU216HW,2013-03-22 12:13:00,
2013-03-22 06:18:00,67.8,63.7,28.96,South,180,0.0,1.1,87,0.00,,,0.00,WUHU216HW,2013-03-22 12:18:00,
2013-03-22 06:23:00,67.8,63.7,28.96,SSW,203,2.2,2.2,87,0.00,,,0.00,WUHU216HW,2013-03-22 12:23:00,
2013-03-22 06:28:00,67.8,64.1,28.97,SSE,158,0.0,2.2,88,0.00,,,0.00,WUHU216HW,2013-03-22 12:28:00,
2013-03-22 06:33:00,67.8,64.1,28.97,ESE,113,0.8,2.2,88,0.00,,,0.00,WUHU216HW,2013-03-22 12:33:00,
2013-03-22 06:38:00,67.8,64.1,28.97,South,180,1.1,1.1,88,0.00,,,0.00,WUHU216HW,2013-03-22 12:38:00,
2013-03-22 06:43:00,67.8,64.1,28.97,SSW,203,1.5,1.5,88,0.00,,,0.00,WUHU216HW,2013-03-22 12:43:00,
2013-03-22 06:48:00,68.0,64.2,28.98,ESE,113,0.0,1.5,88,0.00,,,0.00,WUHU216HW,2013-03-22 12:48:00,
2013-03-22 06:53:00,68.1,64.4,28.98,SE,135,0.8,0.8,88,0.00,,,0.00,WUHU216HW,2013-03-22 12:53:00,
2013-03-22 06:58:00,68.0,64.2,28.98,SE,135,0.0,0.8,88,0.00,,,0.00,WUHU216HW,2013-03-22 12:58:00,
2013-03-22 07:03:00,68.1,64.4,28.98,SSE,158,0.8,0.8,88,0.00,,,0.00,WUHU216HW,2013-03-22 13:03:00,
2013-03-22 07:08:00,68.1,64.7,28.98,South,180,0.8,0.8,89,0.00,,,0.00,WUHU216HW,2013-03-22 13:08:00,
2013-03-22 07:13:00,68.1,64.7,28.99,SSE,158,0.8,1.1,89,0.00,,,0.00,WUHU216HW,2013-03-22 13:13:00,
2013-03-22 07:18:00,68.1,64.4,28.98,SSE,158,0.0,1.1,88,0.00,,,0.00,WUHU216HW,2013-03-22 13:18:00,
2013-03-22 07:23:00,68.3,64.9,28.99,NE,45,0.0,0.8,89,0.00,,,0.00,WUHU216HW,2013-03-22 13:23:00,
2013-03-22 07:28:00,68.5,65.1,28.99,ENE,68,0.0,0.0,89,0.00,,,0.00,WUHU216HW,2013-03-22 13:28:00,
2013-03-22 07:33:00,68.5,64.8,28.99,ENE,68,0.0,0.8,88,0.00,,,0.00,WUHU216HW,2013-03-22 13:33:00,
2013-03-22 07:38:00,68.5,64.8,28.99,ENE,68,0.8,0.8,88,0.00,,,0.00,WUHU216HW,2013-03-22 13:38:00,
2013-03-22 07:43:00,68.7,64.9,28.99,East,90,0.8,0.8,88,0.00,,,0.00,WUHU216HW,2013-03-22 13:43:00,
2013-03-22 07:48:00,68.7,64.9,28.99,ENE,68,0.6,0.8,88,0.00,,,0.00,WUHU216HW,2013-03-22 13:48:00,
2013-03-22 07:53:00,68.9,65.1,28.99,ESE,113,0.6,0.6,88,0.00,,,0.00,WUHU216HW,2013-03-22 13:53:00,
2013-03-22 07:58:00,69.0,65.3,28.99,SSE,158,0.0,0.6,88,0.00,,,0.00,WUHU216HW,2013-03-22 13:58:00,
2013-03-22 08:03:00,69.4,65.6,29.00,ENE,68,0.6,0.6,88,0.00,,,0.00,WUHU216HW,2013-03-22 14:03:00,
2013-03-22 08:08:00,69.4,65.3,29.00,East,90,0.6,0.6,87,0.00,,,0.00,WUHU216HW,2013-03-22 14:08:00,
2013-03-22 08:13:00,69.6,65.5,29.00,South,180,0.8,0.8,87,0.00,,,0.00,WUHU216HW,2013-03-22 14:13:00,
2013-03-22 08:18:00,70.1,65.7,29.01,West,270,2.2,2.2,86,0.00,,,0.00,WUHU216HW,2013-03-22 14:18:00,
2013-03-22 08:23:00,70.8,66.4,29.01,SSE,158,0.0,2.2,86,0.00,,,0.00,WUHU216HW,2013-03-22 14:23:00,
2013-03-22 08:28:00,71.4,66.3,29.01,SSW,203,2.2,2.2,84,0.00,,,0.00,WUHU216HW,2013-03-22 14:28:00,
2013-03-22 08:33:00,71.7,65.9,29.01,SW,225,0.8,2.2,82,0.00,,,0.00,WUHU216HW,2013-03-22 14:33:00,
2013-03-22 08:38:00,71.7,65.6,29.02,SSE,158,0.8,1.7,81,0.00,,,0.00,WUHU216HW,2013-03-22 14:38:00,
2013-03-22 08:43:00,72.1,66.0,29.02,South,180,0.8,1.1,81,0.00,,,0.00,WUHU216HW,2013-03-22 14:43:00,
2013-03-22 08:48:00,72.3,65.8,29.02,West,270,0.8,0.8,80,0.00,,,0.00,WUHU216HW,2013-03-22 14:48:00,
2013-03-22 08:53:00,72.3,65.4,29.02,WSW,248,0.6,0.8,79,0.00,,,0.00,WUHU216HW,2013-03-22 14:53:00,
2013-03-22 08:58:00,72.3,65.4,29.03,NW,315,0.6,0.8,79,0.00,,,0.00,WUHU216HW,2013-03-22 14:58:00,
2013-03-22 09:03:00,72.1,64.9,29.02,West,270,0.6,3.5,78,0.00,,,0.00,WUHU216HW,2013-03-22 15:03:00,
2013-03-22 09:08:00,72.1,64.9,29.02,South,180,0.0,3.5,78,0.00,,,0.00,WUHU216HW,2013-03-22 15:08:00,
2013-03-22 09:13:00,72.1,64.9,29.03,West,270,0.0,0.6,78,0.00,,,0.00,WUHU216HW,2013-03-22 15:13:00,
2013-03-22 09:18:00,72.3,65.0,29.03,WNW,293,0.8,0.8,78,0.00,,,0.00,WUHU216HW,2013-03-22 15:18:00,
2013-03-22 09:23:00,72.5,64.8,29.03,NNW,338,2.2,2.2,77,0.00,,,0.00,WUHU216HW,2013-03-22 15:23:00,
2013-03-22 09:28:00,72.6,65.0,29.03,NW,315,3.1,3.1,77,0.00,,,0.00,WUHU216HW,2013-03-22 15:28:00,
2013-03-22 09:33:00,73.4,65.4,29.03,West,270,2.4,3.8,76,0.00,,,0.00,WUHU216HW,2013-03-22 15:33:00,
2013-03-22 09:38:00,73.7,64.9,29.03,NW,315,2.9,3.8,74,0.00,,,0.00,WUHU216HW,2013-03-22 15:38:00,
2013-03-22 09:43:00,73.9,65.1,29.04,WNW,293,0.6,2.9,74,0.00,,,0.00,WUHU216HW,2013-03-22 15:43:00,
2013-03-22 09:48:00,74.1,64.9,29.03,WSW,248,1.5,2.9,73,0.00,,,0.00,WUHU216HW,2013-03-22 15:48:00,
2013-03-22 09:53:00,74.3,64.7,29.03,SW,225,4.0,4.0,72,0.00,,,0.00,WUHU216HW,2013-03-22 15:53:00,
2013-03-22 09:58:00,74.4,64.8,29.04,West,270,0.8,4.0,72,0.00,,,0.00,WUHU216HW,2013-03-22 15:58:00,
2013-03-22 10:03:00,74.8,64.8,29.04,WNW,293,0.8,5.1,71,0.00,,,0.00,WUHU216HW,2013-03-22 16:03:00,
2013-03-22 10:08:00,75.0,64.9,29.04,NW,315,2.0,5.5,71,0.00,,,0.00,WUHU216HW,2013-03-22 16:08:00,
2013-03-22 10:13:00,75.5,65.4,29.04,West,270,2.9,5.5,71,0.00,,,0.00,WUHU216HW,2013-03-22 16:13:00,
2013-03-22 10:18:00,76.2,64.9,29.04,NW,315,4.4,4.4,68,0.00,,,0.00,WUHU216HW,2013-03-22 16:18:00,
2013-03-22 10:23:00,76.6,65.3,29.04,NNW,338,2.2,4.4,68,0.00,,,0.00,WUHU216HW,2013-03-22 16:23:00,
2013-03-22 10:28:00,76.6,64.8,29.04,NNW,338,4.4,4.6,67,0.00,,,0.00,WUHU216HW,2013-03-22 16:28:00,
2013-03-22 10:33:00,76.6,64.8,29.05,NW,315,3.1,4.6,67,0.00,,,0.00,WUHU216HW,2013-03-22 16:33:00,
2013-03-22 10:38:00,77.1,64.9,29.05,WNW,293,2.4,3.1,66,0.00,,,0.00,WUHU216HW,2013-03-22 16:38:00,
2013-03-22 10:43:00,77.1,64.4,29.05,WNW,293,0.6,4.4,65,0.00,,,0.00,WUHU216HW,2013-03-22 16:43:00,
2013-03-22 10:48:00,77.1,64.4,29.04,WNW,293,0.0,5.8,65,0.00,,,0.00,WUHU216HW,2013-03-22 16:48:00,
2013-03-22 10:53:00,77.1,64.0,29.04,NNW,338,2.9,5.8,64,0.00,,,0.00,WUHU216HW,2013-03-22 16:53:00,
2013-03-22 10:58:00,77.5,63.9,29.05,WSW,248,0.8,4.6,63,0.00,,,0.00,WUHU216HW,2013-03-22 16:58:00,
2013-03-22 11:03:00,78.4,64.3,29.04,WSW,248,0.0,3.5,62,0.00,,,0.00,WUHU216HW,2013-03-22 17:03:00,
2013-03-22 11:08:00,78.6,64.1,29.04,South,180,0.0,1.3,61,0.00,,,0.00,WUHU216HW,2013-03-22 17:08:00,
2013-03-22 11:13:00,79.1,64.1,29.03,NNW,338,0.0,5.1,60,0.00,,,0.00,WUHU216HW,2013-03-22 17:13:00,
2013-03-22 11:18:00,79.5,64.5,29.03,WNW,293,1.3,5.1,60,0.00,,,0.00,WUHU216HW,2013-03-22 17:18:00,
2013-03-22 11:23:00,80.0,65.4,29.03,NW,315,5.1,5.1,61,0.00,,,0.00,WUHU216HW,2013-03-22 17:23:00,
2013-03-22 11:28:00,80.4,64.7,29.03,WNW,293,4.6,7.6,59,0.00,,,0.00,WUHU216HW,2013-03-22 17:28:00,
2013-03-22 11:34:00,80.2,63.5,29.03,NNW,338,2.2,7.6,57,0.00,,,0.00,WUHU216HW,2013-03-22 17:34:00,
2013-03-22 11:39:00,79.7,63.1,29.03,North,0,0.0,4.9,57,0.00,,,0.00,WUHU216HW,2013-03-22 17:39:00,
2013-03-22 11:44:00,79.3,62.7,29.04,NNW,338,3.5,4.9,57,0.00,,,0.00,WUHU216HW,2013-03-22 17:44:00,
2013-03-22 11:49:00,79.5,63.4,29.03,NW,315,2.4,3.5,58,0.00,,,0.00,WUHU216HW,2013-03-22 17:49:00,
2013-03-22 11:54:00,79.5,63.4,29.03,NW,315,3.1,3.1,58,0.00,,,0.00,WUHU216HW,2013-03-22 17:54:00,
2013-03-22 11:59:00,80.2,64.1,29.02,NE,45,0.6,3.1,58,0.00,,,0.00,WUHU216HW,2013-03-22 17:59:00,
2013-03-22 12:04:00,80.7,64.0,29.03,NNE,23,0.6,1.1,57,0.00,,,0.00,WUHU216HW,2013-03-22 18:04:00,
2013-03-22 12:09:00,81.1,64.4,29.02,West,270,2.0,3.5,57,0.00,,,0.00,WUHU216HW,2013-03-22 18:09:00,
2013-03-22 12:14:00,81.3,64.0,29.01,West,270,2.2,3.5,56,0.00,,,0.00,WUHU216HW,2013-03-22 18:14:00,
2013-03-22 12:19:00,81.6,64.3,29.02,West,270,3.5,4.4,56,0.00,,,0.00,WUHU216HW,2013-03-22 18:19:00,
2013-03-22 12:24:00,82.0,63.6,29.01,NW,315,9.3,9.3,54,0.00,,,0.00,WUHU216HW,2013-03-22 18:24:00,
2013-03-22 12:29:00,82.2,63.8,29.01,NNW,338,2.4,9.3,54,0.00,,,0.00,WUHU216HW,2013-03-22 18:29:00,
2013-03-22 12:34:00,82.2,63.2,29.01,NW,315,3.5,3.5,53,0.00,,,0.00,WUHU216HW,2013-03-22 18:34:00,
2013-03-22 12:39:00,82.2,63.2,29.01,WNW,293,6.0,7.6,53,0.00,,,0.00,WUHU216HW,2013-03-22 18:39:00,
2013-03-22 12:44:00,82.5,63.6,29.01,NNW,338,0.6,7.6,53,0.00,,,0.00,WUHU216HW,2013-03-22 18:44:00,
2013-03-22 12:49:00,82.5,63.1,29.01,NE,45,0.6,6.0,52,0.00,,,0.00,WUHU216HW,2013-03-22 18:49:00,
2013-03-22 12:54:00,82.5,62.5,29.01,North,0,0.6,4.6,51,0.00,,,0.00,WUHU216HW,2013-03-22 18:54:00,
2013-03-22 12:59:00,82.5,62.5,29.01,NNW,338,0.6,0.6,51,0.00,,,0.00,WUHU216HW,2013-03-22 18:59:00,
2013-03-22 13:04:00,82.7,62.7,29.00,NNW,338,6.2,6.2,51,0.00,,,0.00,WUHU216HW,2013-03-22 19:04:00,
2013-03-22 13:09:00,82.9,62.9,29.00,NW,315,11.6,11.6,51,0.00,,,0.00,WUHU216HW,2013-03-22 19:09:00,
2013-03-22 13:14:00,82.9,62.4,29.00,NNW,338,0.8,11.6,50,0.00,,,0.00,WUHU216HW,2013-03-22 19:14:00,
2013-03-22 13:19:00,82.9,62.4,28.99,North,0,2.6,3.8,50,0.00,,,0.00,WUHU216HW,2013-03-22 19:19:00,
2013-03-22 13:24:00,83.1,62.6,28.99,North,0,0.6,3.8,50,0.00,,,0.00,WUHU216HW,2013-03-22 19:24:00,
2013-03-22 13:29:00,83.1,61.9,29.00,West,270,0.6,2.6,49,0.00,,,0.00,WUHU216HW,2013-03-22 19:29:00,
2013-03-22 13:34:00,82.9,61.7,28.99,NE,45,0.8,4.2,49,0.00,,,0.00,WUHU216HW,2013-03-22 19:34:00,
2013-03-22 13:39:00,82.7,61.6,28.99,NNW,338,3.8,4.2,49,0.00,,,0.00,WUHU216HW,2013-03-22 19:39:00,
2013-03-22 13:44:00,82.5,62.0,29.00,SSW,203,4.6,4.6,50,0.00,,,0.00,WUHU216HW,2013-03-22 19:44:00,
2013-03-22 13:49:00,82.7,61.6,28.99,West,270,6.2,6.7,49,0.00,,,0.00,WUHU216HW,2013-03-22 19:49:00,
2013-03-22 13:54:00,82.9,61.7,28.99,WNW,293,10.5,10.5,49,0.00,,,0.00,WUHU216HW,2013-03-22 19:54:00,
2013-03-22 13:59:00,83.1,61.3,28.99,WSW,248,4.9,10.5,48,0.00,,,0.00,WUHU216HW,2013-03-22 19:59:00,
2013-03-22 14:04:00,83.1,61.3,28.99,SW,225,1.5,10.5,48,0.00,,,0.00,WUHU216HW,2013-03-22 20:04:00,
2013-03-22 14:09:00,83.3,60.9,28.98,West,270,0.6,2.2,47,0.00,,,0.00,WUHU216HW,2013-03-22 20:09:00,
2013-03-22 14:14:00,83.4,61.0,28.99,WNW,293,1.7,7.1,47,0.00,,,0.00,WUHU216HW,2013-03-22 20:14:00,
2013-03-22 14:19:00,83.4,60.4,28.98,WSW,248,7.6,7.6,46,0.00,,,0.00,WUHU216HW,2013-03-22 20:19:00,
2013-03-22 14:24:00,83.3,60.2,28.98,West,270,2.4,7.6,46,0.00,,,0.00,WUHU216HW,2013-03-22 20:24:00,
2013-03-22 14:29:00,83.1,60.1,28.99,WSW,248,5.3,7.6,46,0.00,,,0.00,WUHU216HW,2013-03-22 20:29:00,
2013-03-22 14:34:00,83.3,60.2,28.98,West,270,2.4,5.3,46,0.00,,,0.00,WUHU216HW,2013-03-22 20:34:00,
2013-03-22 14:39:00,83.4,60.4,28.97,West,270,0.0,5.3,46,0.00,,,0.00,WUHU216HW,2013-03-22 20:39:00,
2013-03-22 14:44:00,83.6,61.2,28.98,WSW,248,6.2,6.2,47,0.00,,,0.00,WUHU216HW,2013-03-22 20:44:00,
2013-03-22 14:49:00,83.6,60.6,28.98,NNW,338,5.8,7.1,46,0.00,,,0.00,WUHU216HW,2013-03-22 20:49:00,
2013-03-22 14:54:00,83.4,59.8,28.98,WNW,293,1.3,7.1,45,0.00,,,0.00,WUHU216HW,2013-03-22 20:54:00,
2013-03-22 14:59:00,83.4,60.4,28.97,NW,315,2.6,5.8,46,0.00,,,0.00,WUHU216HW,2013-03-22 20:59:00,
2013-03-22 15:04:00,83.4,60.4,28.97,WNW,293,0.8,6.0,46,0.00,,,0.00,WUHU216HW,2013-03-22 21:04:00,
2013-03-22 15:09:00,83.4,59.8,28.97,NNW,338,0.8,6.0,45,0.00,,,0.00,WUHU216HW,2013-03-22 21:09:00,
2013-03-22 15:14:00,83.3,59.6,28.97,WNW,293,8.9,8.9,45,0.00,,,0.00,WUHU216HW,2013-03-22 21:14:00,
2013-03-22 15:19:00,83.1,58.8,28.97,NW,315,2.6,8.9,44,0.00,,,0.00,WUHU216HW,2013-03-22 21:19:00,
2013-03-22 15:24:00,82.9,58.7,28.97,NW,315,6.7,6.7,44,0.00,,,0.00,WUHU216HW,2013-03-22 21:24:00,
2013-03-22 15:29:00,82.9,58.7,28.97,NW,315,8.5,8.5,44,0.00,,,0.00,WUHU216HW,2013-03-22 21:29:00,
2013-03-22 15:34:00,82.5,58.3,28.97,NW,315,2.9,8.5,44,0.00,,,0.00,WUHU216HW,2013-03-22 21:34:00,
2013-03-22 15:39:00,82.7,59.1,28.97,NNW,338,1.5,2.9,45,0.00,,,0.00,WUHU216HW,2013-03-22 21:39:00,
2013-03-22 15:44:00,82.7,59.1,28.97,NNE,23,0.8,2.9,45,0.00,,,0.00,WUHU216HW,2013-03-22 21:44:00,
2013-03-22 15:49:00,82.5,58.3,28.97,NW,315,0.6,3.3,44,0.00,,,0.00,WUHU216HW,2013-03-22 21:49:00,
2013-03-22 15:54:00,82.2,57.4,28.97,NNW,338,0.8,3.3,43,0.00,,,0.00,WUHU216HW,2013-03-22 21:54:00,
2013-03-22 15:59:00,82.2,56.8,28.96,NW,315,1.7,4.4,42,0.00,,,0.00,WUHU216HW,2013-03-22 21:59:00,
2013-03-22 16:04:00,82.0,57.2,28.97,NNW,338,0.6,8.9,43,0.00,,,0.00,WUHU216HW,2013-03-22 22:04:00,
2013-03-22 16:09:00,81.8,57.7,28.97,NW,315,2.0,8.9,44,0.00,,,0.00,WUHU216HW,2013-03-22 22:09:00,
2013-03-22 16:14:00,81.6,56.9,28.97,NW,315,4.9,4.9,43,0.00,,,0.00,WUHU216HW,2013-03-22 22:14:00,
2013-03-22 16:19:00,81.3,56.0,28.97,NW,315,6.2,6.2,42,0.00,,,0.00,WUHU216HW,2013-03-22 22:19:00,
2013-03-22 16:24:00,81.1,56.4,28.97,NW,315,6.0,6.2,43,0.00,,,0.00,WUHU216HW,2013-03-22 22:24:00,
2013-03-22 16:29:00,81.1,55.8,28.97,WNW,293,4.0,6.2,42,0.00,,,0.00,WUHU216HW,2013-03-22 22:29:00,
2013-03-22 16:34:00,80.9,56.3,28.97,WNW,293,3.1,5.8,43,0.00,,,0.00,WUHU216HW,2013-03-22 22:34:00,
2013-03-22 16:39:00,80.9,56.3,28.96,WNW,293,7.3,7.3,43,0.00,,,0.00,WUHU216HW,2013-03-22 22:39:00,
2013-03-22 16:44:00,80.7,56.1,28.96,NNW,338,3.3,7.3,43,0.00,,,0.00,WUHU216HW,2013-03-22 22:44:00,
2013-03-22 16:49:00,80.6,55.9,28.96,North,0,2.4,3.3,43,0.00,,,0.00,WUHU216HW,2013-03-22 22:49:00,
2013-03-22 16:54:00,80.4,55.8,28.96,NW,315,4.0,4.0,43,0.00,,,0.00,WUHU216HW,2013-03-22 22:54:00,
2013-03-22 16:59:00,80.4,55.8,28.97,NW,315,3.8,75.1,43,0.00,,,0.00,WUHU216HW,2013-03-22 22:59:00,
2013-03-22 17:04:00,80.2,56.2,28.96,NW,315,4.0,75.1,44,0.00,,,0.00,WUHU216HW,2013-03-22 23:04:00,
2013-03-22 17:09:00,79.8,55.9,28.96,NW,315,4.6,4.6,44,0.00,,,0.00,WUHU216HW,2013-03-22 23:09:00,
2013-03-22 17:14:00,79.8,55.9,28.96,WNW,293,4.4,4.6,44,0.00,,,0.00,WUHU216HW,2013-03-22 23:14:00,
2013-03-22 17:19:00,79.7,55.7,28.97,NNW,338,0.0,4.6,44,0.00,,,0.00,WUHU216HW,2013-03-22 23:19:00,
2013-03-22 17:24:00,79.5,55.6,28.97,NW,315,7.3,7.3,44,0.00,,,0.00,WUHU216HW,2013-03-22 23:24:00,
2013-03-22 17:29:00,79.3,55.4,28.97,NNW,338,0.0,7.3,44,0.00,,,0.00,WUHU216HW,2013-03-22 23:29:00,
2013-03-22 17:34:00,79.1,55.2,28.97,NW,315,3.5,7.3,44,0.00,,,0.00,WUHU216HW,2013-03-22 23:34:00,
2013-03-22 17:39:00,78.9,55.7,28.97,NW,315,4.6,4.6,45,0.00,,,0.00,WUHU216HW,2013-03-22 23:39:00,
2013-03-22 17:44:00,78.8,55.5,28.97,NE,45,0.0,4.6,45,0.00,,,0.00,WUHU216HW,2013-03-22 23:44:00,
2013-03-22 17:49:00,78.6,55.4,28.97,ENE,68,2.0,4.6,45,0.00,,,0.00,WUHU216HW,2013-03-22 23:49:00,
2013-03-22 17:54:00,78.2,54.4,28.97,NNW,338,1.1,2.0,44,0.00,,,0.00,WUHU216HW,2013-03-22 23:54:00,
2013-03-22 17:59:00,77.9,54.1,28.97,North,0,0.0,1.1,44,0.00,,,0.00,WUHU216HW,2013-03-22 23:59:00,
2013-03-22 18:04:00,77.7,53.9,28.97,North,0,1.1,1.1,44,0.00,,,0.00,WUHU216HW,2013-03-23 00:04:00,
2013-03-22 18:09:00,77.3,54.2,28.98,ENE,68,4.4,4.4,45,0.00,,,0.00,WUHU216HW,2013-03-23 00:09:00,
2013-03-22 18:14:00,77.1,54.1,28.98,North,0,0.8,4.4,45,0.00,,,0.00,WUHU216HW,2013-03-23 00:14:00,
2013-03-22 18:19:00,76.8,53.7,28.98,ENE,68,5.3,8.7,45,0.00,,,0.00,WUHU216HW,2013-03-23 00:19:00,
2013-03-22 18:24:00,76.1,53.1,28.98,NNE,23,1.7,8.7,45,0.00,,,0.00,WUHU216HW,2013-03-23 00:24:00,
2013-03-22 18:29:00,75.9,53.6,28.99,NNE,23,0.0,3.5,46,0.00,,,0.00,WUHU216HW,2013-03-23 00:29:00,
2013-03-22 18:34:00,75.5,53.4,28.99,NE,45,0.0,1.7,46,0.00,,,0.00,WUHU216HW,2013-03-23 00:34:00,
2013-03-22 18:39:00,75.3,53.1,28.99,NE,45,1.5,1.5,46,0.00,,,0.00,WUHU216HW,2013-03-23 00:39:00,
2013-03-22 18:44:00,75.3,53.1,28.99,North,0,0.8,1.5,46,0.00,,,0.00,WUHU216HW,2013-03-23 00:44:00,
2013-03-22 18:49:00,75.0,52.7,29.00,NE,45,0.0,1.5,46,0.00,,,0.00,WUHU216HW,2013-03-23 00:49:00,
2013-03-22 18:54:00,74.8,53.2,29.00,North,0,0.0,0.0,47,0.00,,,0.00,WUHU216HW,2013-03-23 00:54:00,
2013-03-22 18:59:00,74.4,52.8,29.00,NNE,23,2.0,2.0,47,0.00,,,0.00,WUHU216HW,2013-03-23 00:59:00,
2013-03-22 19:04:00,74.4,52.8,29.01,NNE,23,0.0,2.0,46,0.00,,,0.00,WUHU216HW,2013-03-23 01:04:00,
2013-03-22 19:09:00,74.1,51.9,29.01,ENE,68,0.0,1.1,46,0.00,,,0.00,WUHU216HW,2013-03-23 01:09:00,
2013-03-22 19:14:00,73.9,52.3,29.01,North,0,0.0,0.0,47,0.00,,,0.00,WUHU216HW,2013-03-23 01:14:00,
2013-03-22 19:19:00,73.7,52.3,29.01,ENE,68,0.0,0.0,47,0.00,,,0.00,WUHU216HW,2013-03-23 01:19:00,
2013-03-22 19:24:00,73.5,51.3,29.01,ENE,68,0.0,0.0,46,0.00,,,0.00,WUHU216HW,2013-03-23 01:24:00,
2013-03-22 19:29:00,73.4,51.2,29.01,East,90,6.4,6.4,46,0.00,,,0.00,WUHU216HW,2013-03-23 01:29:00,
2013-03-22 19:35:00,72.8,50.7,29.01,NNE,23,0.8,6.4,46,0.00,,,0.00,WUHU216HW,2013-03-23 01:35:00,
2013-03-22 19:40:00,72.6,50.5,29.01,NE,45,2.4,2.4,46,0.00,,,0.00,WUHU216HW,2013-03-23 01:40:00,
2013-03-22 19:45:00,72.5,50.4,29.01,North,0,0.6,2.4,46,0.00,,,0.00,WUHU216HW,2013-03-23 01:45:00,
2013-03-22 19:50:00,72.1,50.0,29.02,ENE,68,2.9,2.9,46,0.00,,,0.00,WUHU216HW,2013-03-23 01:50:00,
2013-03-22 19:55:00,71.7,49.7,29.02,East,90,0.0,2.9,46,0.00,,,0.00,WUHU216HW,2013-03-23 01:55:00,
2013-03-22 20:00:00,71.4,49.4,29.02,ENE,68,1.3,2.9,46,0.00,,,0.00,WUHU216HW,2013-03-23 02:00:00,
2013-03-22 20:05:00,71.2,49.8,29.02,NNW,338,0.0,1.3,47,0.00,,,0.00,WUHU216HW,2013-03-23 02:05:00,
2013-03-22 20:10:00,70.8,49.5,29.03,NNE,23,0.0,0.6,47,0.00,,,0.00,WUHU216HW,2013-03-23 02:10:00,
2013-03-22 20:15:00,71.0,49.7,29.03,NNE,23,0.0,0.6,47,0.00,,,0.00,WUHU216HW,2013-03-23 02:15:00,
2013-03-22 20:20:00,70.7,49.3,29.04,NE,45,7.1,7.1,47,0.00,,,0.00,WUHU216HW,2013-03-23 02:20:00,
2013-03-22 20:25:00,70.1,48.3,29.05,East,90,3.3,7.1,46,0.00,,,0.00,WUHU216HW,2013-03-23 02:25:00,
2013-03-22 20:30:00,69.9,48.1,29.05,NE,45,1.5,7.1,46,0.00,,,0.00,WUHU216HW,2013-03-23 02:30:00,
2013-03-22 20:35:00,68.9,47.7,29.05,ENE,68,2.0,4.4,47,0.00,,,0.00,WUHU216HW,2013-03-23 02:35:00,
2013-03-22 20:40:00,68.5,47.4,29.06,NE,45,7.1,7.1,47,0.00,,,0.00,WUHU216HW,2013-03-23 02:40:00,
2013-03-22 20:45:00,68.3,47.8,29.06,NNE,23,2.4,7.1,48,0.00,,,0.00,WUHU216HW,2013-03-23 02:45:00,
2013-03-22 20:50:00,68.0,48.1,29.06,NE,45,0.8,7.1,49,0.00,,,0.00,WUHU216HW,2013-03-23 02:50:00,
2013-03-22 20:55:00,67.8,47.9,29.06,NE,45,5.3,5.3,49,0.00,,,0.00,WUHU216HW,2013-03-23 02:55:00,
2013-03-22 21:00:00,67.8,48.5,29.07,ENE,68,6.9,6.9,50,0.00,,,0.00,WUHU216HW,2013-03-23 03:00:00,
2013-03-22 21:05:00,67.6,48.9,29.05,East,90,6.9,6.9,51,0.00,,,0.00,WUHU216HW,2013-03-23 03:05:00,
2013-03-22 21:10:00,67.2,48.5,29.06,NE,45,5.1,6.9,51,0.00,,,0.00,WUHU216HW,2013-03-23 03:10:00,
2013-03-22 21:15:00,67.6,49.3,29.06,ENE,68,5.8,6.9,52,0.00,,,0.00,WUHU216HW,2013-03-23 03:15:00,
2013-03-22 21:20:00,67.2,49.0,29.07,ENE,68,2.0,6.4,52,0.00,,,0.00,WUHU216HW,2013-03-23 03:20:00,
2013-03-22 21:25:00,67.2,49.0,29.07,ENE,68,5.1,6.4,52,0.00,,,0.00,WUHU216HW,2013-03-23 03:25:00,
2013-03-22 21:30:00,67.2,49.5,29.08,ENE,68,7.6,7.6,53,0.00,,,0.00,WUHU216HW,2013-03-23 03:30:00,
2013-03-22 21:35:00,67.2,50.0,29.08,East,90,3.5,7.6,54,0.00,,,0.00,WUHU216HW,2013-03-23 03:35:00,
2013-03-22 21:40:00,66.9,49.7,29.08,ENE,68,1.5,5.1,54,0.00,,,0.00,WUHU216HW,2013-03-23 03:40:00,
2013-03-22 21:45:00,66.9,50.1,29.08,ENE,68,0.0,3.5,55,0.00,,,0.00,WUHU216HW,2013-03-23 03:45:00,
2013-03-22 21:50:00,66.9,50.6,29.08,ENE,68,1.5,5.8,56,0.00,,,0.00,WUHU216HW,2013-03-23 03:50:00,
2013-03-22 21:55:00,66.7,50.5,29.08,ENE,68,4.9,5.8,56,0.00,,,0.00,WUHU216HW,2013-03-23 03:55:00,
2013-03-22 22:00:00,66.7,51.0,29.08,NE,45,0.6,4.9,57,0.00,,,0.00,WUHU216HW,2013-03-23 04:00:00,
2013-03-22 22:05:00,67.8,51.9,29.08,North,0,0.0,4.9,57,0.00,,,0.00,WUHU216HW,2013-03-23 04:05:00,
2013-03-22 22:10:00,67.8,51.9,29.08,ENE,68,0.0,0.8,57,0.00,,,0.00,WUHU216HW,2013-03-23 04:10:00,
2013-03-22 22:15:00,66.9,51.1,29.08,ENE,68,3.1,3.1,57,0.00,,,0.00,WUHU216HW,2013-03-23 04:15:00,
2013-03-22 22:20:00,68.3,52.4,29.08,NNE,23,0.0,3.1,57,0.00,,,0.00,WUHU216HW,2013-03-23 04:20:00,
2013-03-22 22:25:00,67.1,51.8,29.07,NE,45,2.0,2.4,58,0.00,,,0.00,WUHU216HW,2013-03-23 04:25:00,
2013-03-22 22:30:00,68.3,52.9,29.07,ENE,68,5.8,5.8,58,0.00,,,0.00,WUHU216HW,2013-03-23 04:30:00,
2013-03-22 22:35:00,67.8,52.9,29.07,NE,45,0.0,5.8,59,0.00,,,0.00,WUHU216HW,2013-03-23 04:35:00,
2013-03-22 22:40:00,67.2,52.9,29.07,ENE,68,3.8,4.2,60,0.00,,,0.00,WUHU216HW,2013-03-23 04:40:00,
2013-03-22 22:45:00,67.2,53.3,29.07,NE,45,7.8,7.8,61,0.00,,,0.00,WUHU216HW,2013-03-23 04:45:00,
2013-03-22 22:50:00,67.2,53.3,29.07,NE,45,2.6,7.8,61,0.00,,,0.00,WUHU216HW,2013-03-23 04:50:00,
2013-03-22 22:55:00,68.3,54.8,29.07,ENE,68,1.3,4.0,62,0.00,,,0.00,WUHU216HW,2013-03-23 04:55:00,
2013-03-22 23:00:00,68.1,54.6,29.06,NNE,23,1.1,2.6,62,0.00,,,0.00,WUHU216HW,2013-03-23 05:00:00,
2013-03-22 23:05:00,67.8,54.5,29.06,NE,45,4.4,4.4,62,0.00,,,0.00,WUHU216HW,2013-03-23 05:05:00,
2013-03-22 23:10:00,67.6,54.5,29.06,ENE,68,3.5,4.4,63,0.00,,,0.00,WUHU216HW,2013-03-23 05:10:00,
2013-03-22 23:15:00,67.8,54.7,29.06,NE,45,1.5,4.4,63,0.00,,,0.00,WUHU216HW,2013-03-23 05:15:00,
2013-03-22 23:20:00,67.6,54.9,29.06,NE,45,1.5,3.5,64,0.00,,,0.00,WUHU216HW,2013-03-23 05:20:00,
2013-03-22 23:25:00,67.8,55.1,29.06,ENE,68,4.4,4.4,64,0.00,,,0.00,WUHU216HW,2013-03-23 05:25:00,
2013-03-22 23:30:00,67.8,55.1,29.06,NE,45,0.8,9.8,64,0.00,,,0.00,WUHU216HW,2013-03-23 05:30:00,
2013-03-22 23:35:00,67.8,55.1,29.06,ENE,68,0.0,9.8,64,0.00,,,0.00,WUHU216HW,2013-03-23 05:35:00,
2013-03-22 23:40:00,67.8,55.1,29.07,ENE,68,0.0,5.1,64,0.00,,,0.00,WUHU216HW,2013-03-23 05:40:00,
2013-03-22 23:45:00,67.8,55.5,29.07,North,0,0.0,5.1,65,0.00,,,0.00,WUHU216HW,2013-03-23 05:45:00,
2013-03-22 23:50:00,67.8,55.5,29.06,ENE,68,2.4,2.4,65,0.00,,,0.00,WUHU216HW,2013-03-23 05:50:00,
2013-03-22 23:55:00,67.8,55.1,29.07,NE,45,2.9,2.9,64,0.00,,,0.00,WUHU216HW,2013-03-23 05:55:00,